Gut Buster
30 Dec 2018

     
Click your name for detailed results

Page 1 of 7 (332 items)
PosBib NoNameGun TimeChip TimeCategoryCat PosGenderGen PosClubPace
2129Peter FLEWITT1:00:59.71:00:58.2Top 32Male2EALING SOUTHALL AND MIDDLESEX AC 9.8 m/hr
3143Ian GOSLING1:02:56.21:02:55.3Top 33Male3BRACKNELL FOREST RUNNERS 9.5 m/hr
4272Phil MURPHY1:03:01.21:02:56.2Under 401Male4 9.5 m/hr
513Dan ANDERTON1:04:38.91:04:37.2Under 402Male5OXFORD CITY AC 9.3 m/hr
6392Ben WEBECK1:04:52.41:04:51.0Under 403Male6 9.2 m/hr
777Matt CORNEY1:04:55.51:04:53.7Under 404Male7 9.2 m/hr
10140Tim GILES1:06:49.21:05:51.8Under 406Male10 9.0 m/hr
8219Brian KIRSOPP1:06:09.61:06:06.950-591Male8READING ROADRUNNERS 9.1 m/hr
9160Matthew HARTGROVE1:06:14.11:06:12.6Under 405Male9 9.1 m/hr
11144Nigel GRANTHAM1:06:52.31:06:51.040-491Male11 9.0 m/hr
12288Alec PARCELL1:07:26.51:07:22.6Under 407Male12 8.9 m/hr
13395Ben WHALLEY1:08:09.81:08:06.240-492Male13READING ROADRUNNERS 8.8 m/hr
14142Lee GOLLOP1:08:25.61:08:24.640-493Male14BANJOCYCLES.COM 8.8 m/hr
1570Richard COATES1:08:41.91:08:39.240-494Male15TRI2O 8.7 m/hr
16349Sean STEWART1:08:43.11:08:41.1Under 408Male16TRI2O 8.7 m/hr
19353Michael SULLIVAN1:09:37.01:08:45.7Under 4010Male19 8.6 m/hr
17112Huw DYMOND1:09:01.91:09:00.5Under 409Male17 8.7 m/hr
1886Pete CROALL1:09:06.21:09:03.840-495Male18STOPSLEY STRIDERS 8.7 m/hr
2094Mark DAVIDSON1:09:51.31:09:45.940-496Male20 8.6 m/hr
2132Nathan BLAKE1:10:01.21:09:58.940-497Male21OXFORD TRI CLUB 8.6 m/hr
22268Andy MORGAN1:10:22.21:10:21.240-498Male22READING ROADRUNNERS 8.5 m/hr
23111Rebecca DUXBURY1:10:26.41:10:24.7Top 31Female1OXFORD TRI CLUB 8.5 m/hr
24324Ben ROLLINGS1:10:46.51:10:44.4Under 4011Male23READING AC 8.5 m/hr
25285Matthew OSBORNE1:10:52.71:10:46.740-499Male24 8.5 m/hr
29239Michael LOIACONO1:11:37.91:10:53.340-4910Male28 8.4 m/hr
26700Alex WHEARITY1:11:02.61:10:56.9Under 4012Male25 8.4 m/hr
27277Ed NASH1:11:15.11:11:11.8Under 4013Male26TRI2O 8.4 m/hr
2849Chris BULEY1:11:29.91:11:23.5Under 4014Male27READING ROADRUNNERS 8.4 m/hr
36182Joe HOSKINS1:12:43.61:11:38.6Under 4015Male35NEWBURY AC 8.3 m/hr
3015Mark ANDREW1:11:46.31:11:39.050-592Male29READING ROADRUNNERS 8.4 m/hr
31149Jon GUBB1:12:01.31:11:52.240-4911Male30TRI2O 8.3 m/hr
32154Daniel HARE1:12:21.11:12:08.140-4912Male31 8.3 m/hr
33284Nick ONSLOW1:12:25.11:12:13.940-4913Male32BRAMLEY TRAIL RUNNERS 8.3 m/hr
34201David JONES1:12:37.71:12:31.540-4914Male33 8.3 m/hr
357Paul ALI1:12:41.11:12:35.440-4915Male34READING JOGGERS 8.3 m/hr
3767Harriet CHETTLEBURGH1:12:43.61:12:41.6Top 32Female2TRI2O 8.3 m/hr
38366Wayne THURSTING1:12:59.71:12:48.550-593Male36 8.2 m/hr
39244Marco MOLLER1:13:02.81:12:55.9Under 4016Male37 8.2 m/hr
40204Russell JONES1:13:09.81:12:58.140-4916Male38 8.2 m/hr
44250Stephen MCALISTER1:13:32.51:13:04.650-595Male40HILLINGDON TRIATHLETES 8.2 m/hr
42382Justine WARD1:13:21.51:13:10.9Top 33Female3 8.2 m/hr
41351Tony STREAMS1:13:20.61:13:14.850-594Male39 8.2 m/hr
4350Gemma BULEY1:13:27.41:13:21.2Under 401Female4READING ROADRUNNERS 8.2 m/hr
4542Simon BRADBURY1:13:36.11:13:29.3Under 4017Male41 8.2 m/hr
46379Tony WALKER1:14:14.31:14:11.240-4917Male42READING ROADRUNNERS 8.1 m/hr
471Paul ABERSON1:14:20.51:14:14.0Under 4018Male43EVO TRI CLUB 8.1 m/hr
49378Graham WALKER1:14:21.31:14:14.150-596Male45 8.1 m/hr
48247Rudy MARTINEZ1:14:20.81:14:14.2Under 4019Male44EVO TRI CLUB 8.1 m/hr
51240Anthony LONG1:14:45.11:14:16.340-4918Male47READING ROADRUNNERS 8.0 m/hr
50383Thomas WARD1:14:28.21:14:23.3Under 4020Male46EALING EAGLES RUNNING CLUB 8.1 m/hr
Page 1 of 7 (332 items)
   

fb